This is the latest recevied weather packets stored in our database for station/object DO7ZT-10. If no packets are shown the sender has not sent any weather packets the latest 10 day(s).
| Time | Temp. | Humidity | Pressure | Rain* | Wind** | Luminosity | Snow |
|---|---|---|---|---|---|---|---|
| 1787480171 | 16.11° C | 58% | 1023.3 hPa | - | - | - | - |
| 1787479271 | 16.11° C | 60% | 1023.3 hPa | - | - | - | - |
| 1787478370 | 15.56° C | 60% | 1023.3 hPa | - | - | - | - |
| 1787477470 | 15.56° C | 63% | 1023.3 hPa | - | - | - | - |
| 1787476570 | 16.11° C | 65% | 1023.2 hPa | - | - | - | - |
| 1787475670 | 15° C | 66% | 1023.2 hPa | - | - | - | - |
| 1787474770 | 15.56° C | 67% | 1023.1 hPa | - | - | - | - |
| 1787473870 | 15° C | 65% | 1023.1 hPa | - | - | - | - |
| 1787472970 | 15° C | 70% | 1023.1 hPa | - | - | - | - |
| 1787472070 | 15° C | 70% | 1023.1 hPa | - | - | - | - |
| 1787471170 | 14.44° C | 71% | 1023.1 hPa | - | - | - | - |
| 1787470270 | 13.89° C | 72% | 1023.1 hPa | - | - | - | - |
| 1787469370 | 13.89° C | 75% | 1023 hPa | - | - | - | - |
| 1787468470 | 13.89° C | 73% | 1022.9 hPa | - | - | - | - |
| 1787467570 | 13.33° C | 75% | 1022.9 hPa | - | - | - | - |
| 1787466670 | 13.33° C | 76% | 1022.8 hPa | - | - | - | - |
| 1787465769 | 12.78° C | 77% | 1022.7 hPa | - | - | - | - |
| 1787464869 | 12.78° C | 75% | 1022.6 hPa | - | - | - | - |
| 1787463969 | 12.78° C | 79% | 1022.5 hPa | - | - | - | - |
| 1787463069 | 12.78° C | 79% | 1022.4 hPa | - | - | - | - |
| 1787462169 | 12.78° C | 79% | 1022.1 hPa | - | - | - | - |
| 1787461269 | 12.22° C | 79% | 1022.3 hPa | - | - | - | - |
| 1787460369 | 12.22° C | 79% | 1022.1 hPa | - | - | - | - |
| 1787459469 | 12.22° C | 79% | 1021.9 hPa | - | - | - | - |
| 1787458569 | 12.22° C | 78% | 1021.9 hPa | - | - | - | - |
* Rain since midnight (hover to see other rain measurements)
** Current wind speed in m/s (hover to see current wind gust speed)